Weather History for Springfield, MO

Change the Weather History Date:

Thursday, April 3, 2014

  Actual Average Record
Temperature  
Mean Temperature 65 °F 52 °F  
Max Temperature 81 °F 63 °F 86 °F (2011)
Min Temperature 48 °F 40 °F 17 °F (1936)
Degree Days  
Heating Degree Days 0 14  
Month to date heating degree days 19 42  
Since 1 July heating degree days 4655 4216  
Cooling Degree Days 0 0  
Month to date cooling degree days 0 0  
Year to date cooling degree days 0 3  
Growing Degree Days 17 (Base 50)    
Moisture  
Dew Point 60 °F    
Average Humidity 66    
Maximum Humidity 87    
Minimum Humidity 45    
Precipitation  
Precipitation 0.15 in 0.12 in 2.00 in (1965)
Month to date precipitation 0.17 0.38  
Year to date precipitation 4.29 8.99  
Snow  
Snow 0.00 in - - ()
Month to date snowfall 0.0  
Since 1 July snowfall 32.2  
Snow Depth 0.00 in    
Sea Level Pressure  
Sea Level Pressure 29.63 in    
Wind  
Wind Speed 18 mph (South)    
Max Wind Speed 36 mph    
Max Gust Speed 48 mph    
Visibility 10 miles    
Events Rain , Thunderstorm    
T = Trace of Precipitation, MM = Missing Value Source: NWS Daily Summary

Daily Weather History Graph

Daily Weather History Graph

Search for Another Location

Airport:

Trip Planner

Search our weather history database for the weather conditions in past years. The results will help you decide how hot, cold, wet, or windy it might be!

Date:

Astronomy

Apr. 03, 2014 Rise Set
Actual Time 6:56 AM CDT 7:37 PM CDT
Civil Twilight 6:29 AM CDT 8:04 PM CDT
Nautical Twilight 5:58 AM CDT 8:35 PM CDT
Astronomical Twilight 5:26 AM CDT 9:07 PM CDT
Moon 9:30 AM CDT (4/3) 11:53 PM CDT (4/3)
Length of Visible Light 13h 34m
Length of Day
12h 41m
Waxing Crescent, 17% of the Moon is Illuminated
Apr 3
Waxing Crescent
Apr 7
First Quarter
Apr 15
Full
Apr 22
Last Quarter
Apr 29
New

Hourly Weather History & Observations

Time (CDT) Temp. Heat Index Dew Point Humidity Pressure Visibility Wind Dir Wind Speed Gust Speed Precip Events Conditions
12:52 AM 66.9 °F - 63.0 °F 87% 29.69 in 10.0 mi SSE 15.0 mph - N/A   Overcast
1:52 AM 66.2 °F - 62.6 °F 88% 29.68 in 10.0 mi SSE 18.4 mph - N/A   Overcast
2:52 AM 68.0 °F - 63.0 °F 84% 29.67 in 10.0 mi South 16.1 mph - N/A   Overcast
3:52 AM 68.0 °F - 62.1 °F 81% 29.63 in 10.0 mi SSE 16.1 mph - N/A   Scattered Clouds
4:52 AM 66.9 °F - 62.1 °F 84% 29.62 in 10.0 mi South 15.0 mph - N/A   Scattered Clouds
5:39 AM 68.0 °F - 62.1 °F 81% 29.66 in 10.0 mi South 12.7 mph - N/A   Mostly Cloudy
5:52 AM 68.0 °F - 62.1 °F 81% 29.63 in 10.0 mi South 10.4 mph - N/A   Overcast
6:11 AM 68.0 °F - 62.1 °F 81% 29.66 in 10.0 mi SSE 10.4 mph - N/A   Overcast
6:50 AM 68.0 °F - 62.6 °F 83% 29.68 in 10.0 mi South 10.4 mph - N/A   Overcast
6:52 AM 68.0 °F - 62.1 °F 81% 29.65 in 10.0 mi South 9.2 mph - N/A   Overcast
7:52 AM 68.0 °F - 63.0 °F 84% 29.66 in 10.0 mi South 12.7 mph - N/A   Mostly Cloudy
8:16 AM 69.1 °F - 63.0 °F 81% 29.68 in 10.0 mi South 13.8 mph - N/A   Mostly Cloudy
8:52 AM 70.0 °F - 63.0 °F 78% 29.64 in 10.0 mi South 12.7 mph - N/A   Mostly Cloudy
9:08 AM 71.1 °F - 63.0 °F 75% 29.67 in 10.0 mi South 16.1 mph - N/A   Mostly Cloudy
9:52 AM 73.0 °F - 64.0 °F 73% 29.62 in 10.0 mi SSW 17.3 mph - N/A   Mostly Cloudy
10:47 AM 73.4 °F - 62.6 °F 69% 29.64 in 10.0 mi SSW 18.4 mph 26.5 mph N/A   Overcast
10:52 AM 75.0 °F - 63.0 °F 66% 29.60 in 10.0 mi SSW 23.0 mph 26.5 mph N/A   Overcast
11:52 AM 75.9 °F - 64.0 °F 67% 29.59 in 10.0 mi SSW 20.7 mph - 0.00 in Rain Light Rain
12:13 PM 71.1 °F - 64.0 °F 78% 29.65 in 4.0 mi SSW 19.6 mph 33.4 mph 0.03 in Rain , Thunderstorm Thunderstorms and Rain
12:33 PM 72.0 °F - 64.0 °F 76% 29.65 in 10.0 mi South 29.9 mph 39.1 mph 0.04 in   Mostly Cloudy
12:52 PM 73.0 °F - 63.0 °F 71% 29.60 in 10.0 mi South 32.2 mph 47.2 mph 0.04 in   Partly Cloudy
1:52 PM 75.0 °F - 62.1 °F 64% 29.55 in 10.0 mi South 33.4 mph 44.9 mph 0.00 in   Clear
2:52 PM 77.0 °F - 62.1 °F 60% 29.55 in 10.0 mi SSW 24.2 mph 38.0 mph N/A   Clear
3:52 PM 80.1 °F 80.7 °F 59.0 °F 48% 29.54 in 10.0 mi SSW 28.8 mph 34.5 mph N/A   Partly Cloudy
4:52 PM 80.1 °F 80.6 °F 57.9 °F 47% 29.55 in 10.0 mi SSW 21.9 mph 34.5 mph N/A   Clear
5:50 PM 75.2 °F - 60.8 °F 61% 29.60 in 6.0 mi SSW 19.6 mph 27.6 mph 0.00 in Rain Rain
5:52 PM 73.9 °F - 61.0 °F 64% 29.57 in 5.0 mi South 17.3 mph 27.6 mph 0.01 in Rain , Thunderstorm Thunderstorms and Rain
6:52 PM 66.9 °F - 51.1 °F 57% 29.59 in 10.0 mi South 26.5 mph 43.7 mph 0.10 in Rain , Thunderstorm Light Thunderstorms and Rain
7:32 PM 66.9 °F - 46.9 °F 49% 29.63 in 10.0 mi SSW 15.0 mph - 0.00 in   Partly Cloudy
7:52 PM 64.0 °F - 48.9 °F 58% 29.60 in 10.0 mi SSW 13.8 mph - 0.00 in   Partly Cloudy
8:52 PM 64.9 °F - 48.0 °F 54% 29.65 in 10.0 mi WSW 17.3 mph 28.8 mph N/A   Mostly Cloudy
10:52 PM 53.1 °F - 44.1 °F 71% 29.74 in 10.0 mi WNW 11.5 mph - N/A   Partly Cloudy
11:52 PM 50.0 °F - 43.0 °F 77% 29.74 in 10.0 mi WNW 12.7 mph - N/A   Mostly Cloudy